This demonstration page uses our WeatherBlox Daily Observations layout. Learn more.

Left ArrowRight Arrow

Hourly Observations for October 14, 2015

Temp ( °F °C ) Dew Point ( °F °C ) Humidity (%) Winds ( mph kmh ) Pressure ( in mb ) Visibility ( mi km ) Precip ( " mm )
12:53 am 00:53 Clear 44 6.7 42 5.6 93 93 SW 3 6 29.89 1012 10 16 0.00 0.00
1:53 am 01:53 Clear 42 5.6 40 4.4 92 92 Calm 29.88 1012 10 16 0.00 0.00
2:53 am 02:53 Clear 41 5 39 3.9 93 93 Calm 29.88 1012 10 16 0.00 0.00
3:53 am 03:53 Clear with Mist and Fog 39 3.9 38 3.3 96 96 Calm 29.88 1012 2 3 0.00 0.00
3:58 am 03:58 Clear with Mist and Fog 39 3.9 38 3.3 96 96 Calm 29.91 1013 1 2 0.00 0.00
4:10 am 04:10 Clear with Mist and Fog 40 4.4 39 3.9 97 97 Calm 29.91 1013 4 6 0.00 0.00
4:53 am 04:53 Clear 40 4.4 39 3.9 97 97 Calm 29.89 1012 7 11 0.00 0.00
5:30 am 05:30 Clear with Mist and Fog 40 4.4 39 3.9 97 97 Calm 29.91 1013 1 2 0.00 0.00
5:35 am 05:35 Mostly Cloudy with Mist and Fog 40 4.4 39 3.9 97 97 Calm 29.91 1013 1 1 0.00 0.00
5:40 am 05:40 Partly Cloudy with Mist and Fog 39 3.9 38 3.3 96 96 Calm 29.91 1013 1 2 0.00 0.00
5:42 am 05:42 Partly Cloudy with Mist and Fog 39 3.9 38 3.3 96 96 Calm 29.91 1013 3 5 0.00 0.00
5:50 am 05:50 Mostly Cloudy with Mist and Fog 39 4 37 3 93 93 Calm 29.91 1013 3 5 0.00 0.00
5:53 am 05:53 Mostly Cloudy with Mist and Fog 39 3.9 38 3.3 96 96 Calm 29.88 1012 3 5 0.00 0.00
6:00 am 06:00 Mostly Cloudy with Mist and Fog 39 3.9 38 3.3 96 96 Calm 29.91 1013 2 2 0.00 0.00
6:11 am 06:11 Mostly Cloudy with Mist and Fog 38 3.3 37 2.8 97 97 Calm 29.91 1013 2 3 0.00 0.00
6:15 am 06:15 Mostly Cloudy with Mist and Fog 39 3.9 38 3.3 96 96 Calm 29.94 1014 1 1 0.00 0.00
6:53 am 06:53 Mostly Cloudy with Fog 38 3.3 38 3.3 100 100 Calm 29.92 1013 1 1 0.00 0.00
7:02 am 07:02 Clear with Mist and Fog 38 3.3 38 3.3 100 100 Calm 29.94 1014 2 3 0.00 0.00
7:10 am 07:10 Clear 38 3.3 37 2.8 97 97 Calm 29.94 1014 9 14 0.00 0.00
7:35 am 07:35 Mostly Clear with Mist and Fog 37 2.8 36 2.2 96 96 Calm 29.94 1014 2 3 0.00 0.00
7:37 am 07:37 Mostly Cloudy with Mist and Fog 37 2.8 36 2.2 96 96 Calm 29.94 1014 1 2 0.00 0.00
7:44 am 07:44 Mostly Cloudy with Fog 37 2.8 37 2.8 100 100 Calm 29.94 1014 0 0 0.00 0.00
7:53 am 07:53 Mostly Cloudy with Mist and Fog 38 3.3 37 2.8 97 97 Calm 29.91 1013 1 1 0.00 0.00
8:06 am 08:06 Partly Cloudy with Mist and Fog 39 3.9 38 3.3 96 96 Calm 29.94 1014 2 2 0.00 0.00
8:08 am 08:08 Partly Cloudy with Mist and Fog 39 3.9 38 3.3 96 96 Calm 29.94 1014 3 5 0.00 0.00
8:53 am 08:53 Sunny 44 6.7 43 6.1 96 96 WNW 5 7 29.93 1014 9 14 0.00 0.00
9:36 am 09:36 Mostly Sunny 47 8.3 46 7.8 97 97 VRB 3 6 29.97 1015 7 11 0.00 0.00
9:53 am 09:53 Sunny 50 10 46 7.8 86 86 Calm 29.95 1014 10 16 0.00 0.00
10:53 am 10:53 Sunny 55 12.8 46 7.8 72 72 VRB 3 6 29.96 1014 10 16 0.00 0.00
11:53 am 11:53 Sunny 61 16.1 48 8.9 63 63 WSW 6 9 29.96 1015 10 16 0.00 0.00
12:53 pm 12:53 Sunny 64 17.8 44 6.7 48 48 WNW 14 22 29.97 1015 10 16 0.00 0.00
1:53 pm 13:53 Sunny 65 18.3 43 6.1 45 45 WNW 9 15 29.96 1015 10 16 0.00 0.00
2:53 pm 14:53 Sunny 67 19.4 42 5.6 41 41 NW 12 19 29.96 1014 10 16 0.00 0.00
3:53 pm 15:53 Sunny 67 19.4 40 4.4 37 37 WNW 16 26 29.96 1015 10 16 0.00 0.00
4:53 pm 16:53 Sunny 66 18.9 38 3.3 36 36 WNW 13 20 29.97 1015 10 16 0.00 0.00
5:53 pm 17:53 Sunny 65 18.3 38 3.3 37 37 NW 12 19 29.98 1015 10 16 0.00 0.00
6:53 pm 18:53 Sunny 60 15.6 39 3.9 46 46 NW 7 11 30.00 1016 10 16 0.00 0.00
7:53 pm 19:53 Clear 51 10.6 41 5 69 69 Calm 30.03 1017 10 16 0.00 0.00
8:53 pm 20:53 Clear 45 7.2 41 5 86 86 Calm 30.04 1017 10 16 0.00 0.00
9:53 pm 21:53 Clear 43 6.1 40 4.4 89 89 Calm 30.06 1018 10 16 0.00 0.00
10:53 pm 22:53 Clear 41 5 39 3.9 93 93 Calm 30.07 1018 10 16 0.00 0.00
11:53 pm 23:53 Clear 39 3.9 37 2.8 93 93 Calm 30.08 1019 10 16 0.00 0.00

Powered by AerisWeather